Time,TemperatureF,DewpointF,PressureIn,WindDirection,WindDirectionDegrees,WindSpeedMPH,WindSpeedGustMPH,Humidity,HourlyPrecipIn,Conditions,Clouds,dailyrainin,SoftwareType,DateUTC
2013-06-07 00:11:00,50.3,49.0,29.85,NNW,341,5.0,-999.0,95,-99.99,,,0.00,weatherlink.com 1.10,2013-06-07 07:11:00,
2013-06-07 00:41:00,50.2,49.0,29.84,NW,325,0.0,-999.0,95,-99.99,,,0.00,weatherlink.com 1.10,2013-06-07 07:41:00,
2013-06-07 00:56:00,50.0,49.0,29.83,NW,326,0.0,-999.0,95,-99.99,,,0.00,weatherlink.com 1.10,2013-06-07 07:56:00,
2013-06-07 01:11:00,50.0,49.0,29.84,NW,326,0.0,-999.0,95,-99.99,,,0.00,weatherlink.com 1.10,2013-06-07 08:11:00,
2013-06-07 01:26:00,49.5,48.0,29.83,NNW,327,1.0,-999.0,95,-99.99,,,0.00,weatherlink.com 1.10,2013-06-07 08:26:00,
2013-06-07 01:41:00,49.6,48.0,29.83,NW,315,0.0,-999.0,95,-99.99,,,0.00,weatherlink.com 1.10,2013-06-07 08:41:00,
2013-06-07 01:56:00,49.5,48.0,29.83,North,355,1.0,-999.0,95,-99.99,,,0.00,weatherlink.com 1.10,2013-06-07 08:56:00,
2013-06-07 02:12:00,49.4,48.0,29.83,North,5,1.0,-999.0,95,-99.99,,,0.00,weatherlink.com 1.10,2013-06-07 09:12:00,
2013-06-07 02:27:00,49.3,48.0,29.83,North,350,0.0,-999.0,95,-99.99,,,0.00,weatherlink.com 1.10,2013-06-07 09:27:00,
2013-06-07 02:42:00,49.2,48.0,29.83,North,5,3.0,-999.0,95,-99.99,,,0.00,weatherlink.com 1.10,2013-06-07 09:42:00,
2013-06-07 02:57:00,49.1,48.0,29.82,NNW,344,2.0,-999.0,95,-99.99,,,0.00,weatherlink.com 1.10,2013-06-07 09:57:00,
2013-06-07 03:11:00,49.1,48.0,29.82,North,10,6.0,-999.0,96,-99.99,,,0.00,weatherlink.com 1.10,2013-06-07 10:11:00,
2013-06-07 03:26:00,49.2,48.0,29.82,North,355,6.0,-999.0,96,-99.99,,,0.00,weatherlink.com 1.10,2013-06-07 10:26:00,
2013-06-07 03:41:00,49.0,48.0,29.82,North,5,3.0,-999.0,96,-99.99,,,0.00,weatherlink.com 1.10,2013-06-07 10:41:00,
2013-06-07 03:56:00,49.0,48.0,29.82,North,360,5.0,-999.0,96,-99.99,,,0.00,weatherlink.com 1.10,2013-06-07 10:56:00,
2013-06-07 04:17:00,49.1,48.0,29.81,North,360,2.0,-999.0,96,-99.99,,,0.00,weatherlink.com 1.10,2013-06-07 11:17:00,
2013-06-07 04:26:00,49.0,48.0,29.81,NE,43,5.0,-999.0,96,-99.99,,,0.00,weatherlink.com 1.10,2013-06-07 11:26:00,
2013-06-07 04:41:00,48.8,48.0,29.81,NNE,24,3.0,-999.0,95,-99.99,,,0.00,weatherlink.com 1.10,2013-06-07 11:41:00,
2013-06-07 04:56:00,48.9,48.0,29.81,NNW,347,2.0,-999.0,96,-99.99,,,0.00,weatherlink.com 1.10,2013-06-07 11:56:00,
2013-06-07 05:17:00,48.8,48.0,29.81,NNW,345,5.0,-999.0,95,-99.99,,,0.00,weatherlink.com 1.10,2013-06-07 12:17:00,
2013-06-07 05:27:00,48.7,48.0,29.81,North,360,0.0,-999.0,96,-99.99,,,0.00,weatherlink.com 1.10,2013-06-07 12:27:00,
2013-06-07 05:42:00,48.7,48.0,29.82,North,5,1.0,-999.0,96,-99.99,,,0.00,weatherlink.com 1.10,2013-06-07 12:42:00,
2013-06-07 05:56:00,48.5,48.0,29.82,North,5,0.0,-999.0,96,-99.99,,,0.00,weatherlink.com 1.10,2013-06-07 12:56:00,
2013-06-07 06:17:00,48.3,47.0,29.82,North,5,0.0,-999.0,95,-99.99,,,0.00,weatherlink.com 1.10,2013-06-07 13:17:00,
2013-06-07 06:26:00,48.0,47.0,29.82,NE,47,0.0,-999.0,95,-99.99,,,0.00,weatherlink.com 1.10,2013-06-07 13:26:00,
2013-06-07 06:41:00,48.2,47.0,29.82,NE,46,0.0,-999.0,96,-99.99,,,0.00,weatherlink.com 1.10,2013-06-07 13:41:00,
2013-06-07 06:56:00,48.3,47.0,29.82,NE,47,1.0,-999.0,96,-99.99,,,0.00,weatherlink.com 1.10,2013-06-07 13:56:00,
2013-06-07 07:18:00,48.7,48.0,29.82,NE,47,0.0,-999.0,96,-99.99,,,0.00,weatherlink.com 1.10,2013-06-07 14:18:00,
2013-06-07 07:27:00,49.7,49.0,29.82,NE,47,1.0,-999.0,96,-99.99,,,0.00,weatherlink.com 1.10,2013-06-07 14:27:00,
2013-06-07 07:42:00,50.3,49.0,29.82,NNW,338,0.0,-999.0,96,-99.99,,,0.00,weatherlink.com 1.10,2013-06-07 14:42:00,
2013-06-07 07:57:00,50.6,50.0,29.83,South,188,0.0,-999.0,96,-99.99,,,0.00,weatherlink.com 1.10,2013-06-07 14:57:00,
2013-06-07 08:17:00,50.9,50.0,29.82,South,188,0.0,-999.0,96,-99.99,,,0.00,weatherlink.com 1.10,2013-06-07 15:17:00,
2013-06-07 08:26:00,50.9,50.0,29.82,NW,326,3.0,-999.0,96,-99.99,,,0.00,weatherlink.com 1.10,2013-06-07 15:26:00,
2013-06-07 08:42:00,51.1,50.0,29.82,West,265,0.0,-999.0,96,-99.99,,,0.00,weatherlink.com 1.10,2013-06-07 15:42:00,
2013-06-07 08:56:00,51.2,50.0,29.82,NW,313,4.0,-999.0,95,-99.99,,,0.00,weatherlink.com 1.10,2013-06-07 15:56:00,
2013-06-07 09:17:00,51.6,50.0,29.82,WNW,294,4.0,-999.0,95,-99.99,,,0.00,weatherlink.com 1.10,2013-06-07 16:17:00,
2013-06-07 09:26:00,51.7,50.0,29.82,WNW,296,4.0,-999.0,94,-99.99,,,0.00,weatherlink.com 1.10,2013-06-07 16:26:00,
2013-06-07 09:42:00,52.3,51.0,29.82,WNW,300,5.0,-999.0,94,-99.99,,,0.00,weatherlink.com 1.10,2013-06-07 16:42:00,
2013-06-07 09:57:00,53.6,52.0,29.81,West,271,4.0,-999.0,93,-99.99,,,0.00,weatherlink.com 1.10,2013-06-07 16:57:00,
2013-06-07 10:18:00,54.8,52.0,29.82,SW,229,4.0,-999.0,90,-99.99,,,0.00,weatherlink.com 1.10,2013-06-07 17:18:00,
2013-06-07 10:27:00,54.8,52.0,29.82,WNW,298,5.0,-999.0,89,-99.99,,,0.00,weatherlink.com 1.10,2013-06-07 17:27:00,
2013-06-07 10:42:00,55.8,52.0,29.82,NW,304,9.0,-999.0,88,-99.99,,,0.00,weatherlink.com 1.10,2013-06-07 17:42:00,
2013-06-07 10:57:00,55.7,53.0,29.82,WNW,284,7.0,-999.0,89,-99.99,,,0.00,weatherlink.com 1.10,2013-06-07 17:57:00,
2013-06-07 11:26:00,55.5,52.0,29.82,NNW,333,11.0,-999.0,88,-99.99,,,0.00,weatherlink.com 1.10,2013-06-07 18:26:00,
2013-06-07 11:41:00,56.9,53.0,29.82,NW,321,9.0,-999.0,85,-99.99,,,0.00,weatherlink.com 1.10,2013-06-07 18:41:00,
2013-06-07 11:56:00,56.6,53.0,29.83,NNW,342,10.0,-999.0,86,-99.99,,,0.00,weatherlink.com 1.10,2013-06-07 18:56:00,
2013-06-07 12:18:00,56.9,52.0,29.83,WNW,301,6.0,-999.0,83,-99.99,,,0.00,weatherlink.com 1.10,2013-06-07 19:18:00,
2013-06-07 12:26:00,57.1,53.0,29.82,NNW,336,6.0,-999.0,85,-99.99,,,0.00,weatherlink.com 1.10,2013-06-07 19:26:00,
2013-06-07 12:41:00,57.7,53.0,29.82,NNW,333,9.0,-999.0,83,-99.99,,,0.00,weatherlink.com 1.10,2013-06-07 19:41:00,
2013-06-07 12:56:00,57.5,52.0,29.82,NW,322,8.0,-999.0,83,-99.99,,,0.00,weatherlink.com 1.10,2013-06-07 19:56:00,
2013-06-07 13:18:00,57.4,52.0,29.82,NW,316,10.0,-999.0,83,-99.99,,,0.00,weatherlink.com 1.10,2013-06-07 20:18:00,
2013-06-07 13:26:00,58.7,53.0,29.81,WNW,303,7.0,-999.0,81,-99.99,,,0.00,weatherlink.com 1.10,2013-06-07 20:26:00,
2013-06-07 13:41:00,58.8,53.0,29.81,WNW,298,8.0,-999.0,80,-99.99,,,0.00,weatherlink.com 1.10,2013-06-07 20:41:00,
2013-06-07 13:56:00,58.7,52.0,29.81,NW,306,14.0,-999.0,79,-99.99,,,0.00,weatherlink.com 1.10,2013-06-07 20:56:00,
2013-06-07 14:18:00,58.4,52.0,29.81,NW,319,9.0,-999.0,80,-99.99,,,0.00,weatherlink.com 1.10,2013-06-07 21:18:00,
2013-06-07 14:56:00,61.2,54.0,29.79,NNW,327,8.0,-999.0,76,-99.99,,,0.00,weatherlink.com 1.10,2013-06-07 21:56:00,
2013-06-07 15:18:00,62.2,53.0,29.79,WNW,302,7.0,-999.0,73,-99.99,,,0.00,weatherlink.com 1.10,2013-06-07 22:18:00,
2013-06-07 15:26:00,61.4,53.0,29.78,NW,307,9.0,-999.0,74,-99.99,,,0.00,weatherlink.com 1.10,2013-06-07 22:26:00,
2013-06-07 15:41:00,61.5,53.0,29.78,NNW,329,10.0,-999.0,74,-99.99,,,0.00,weatherlink.com 1.10,2013-06-07 22:41:00,
2013-06-07 15:56:00,62.1,53.0,29.77,NW,311,12.0,-999.0,73,-99.99,,,0.00,weatherlink.com 1.10,2013-06-07 22:56:00,
2013-06-07 16:18:00,62.5,53.0,29.77,NW,323,11.0,-999.0,71,-99.99,,,0.00,weatherlink.com 1.10,2013-06-07 23:18:00,
2013-06-07 16:27:00,62.9,54.0,29.77,NNW,335,8.0,-999.0,73,-99.99,,,0.00,weatherlink.com 1.10,2013-06-07 23:27:00,
2013-06-07 16:42:00,64.2,54.0,29.76,WNW,294,8.0,-999.0,70,-99.99,,,0.00,weatherlink.com 1.10,2013-06-07 23:42:00,
2013-06-07 16:57:00,64.3,53.0,29.76,North,349,9.0,-999.0,68,-99.99,,,0.00,weatherlink.com 1.10,2013-06-07 23:57:00,
2013-06-07 17:26:00,64.5,53.0,29.75,NW,317,11.0,-999.0,66,-99.99,,,0.00,weatherlink.com 1.10,2013-06-08 00:26:00,
2013-06-07 17:41:00,64.5,53.0,29.75,NNW,331,10.0,-999.0,67,-99.99,,,0.00,weatherlink.com 1.10,2013-06-08 00:41:00,
2013-06-07 17:56:00,65.4,52.0,29.74,North,360,12.0,-999.0,62,-99.99,,,0.00,weatherlink.com 1.10,2013-06-08 00:56:00,
2013-06-07 18:18:00,66.0,52.0,29.74,North,5,9.0,-999.0,61,-99.99,,,0.00,weatherlink.com 1.10,2013-06-08 01:18:00,
2013-06-07 18:26:00,66.1,51.0,29.74,NNW,341,9.0,-999.0,59,-99.99,,,0.00,weatherlink.com 1.10,2013-06-08 01:26:00,
2013-06-07 18:41:00,65.4,51.0,29.73,North,350,11.0,-999.0,60,-99.99,,,0.00,weatherlink.com 1.10,2013-06-08 01:41:00,
2013-06-07 18:56:00,64.8,50.0,29.73,NNW,348,8.0,-999.0,60,-99.99,,,0.00,weatherlink.com 1.10,2013-06-08 01:56:00,
2013-06-07 19:18:00,65.1,50.0,29.73,NW,316,9.0,-999.0,59,-99.99,,,0.00,weatherlink.com 1.10,2013-06-08 02:18:00,
2013-06-07 19:26:00,63.9,50.0,29.73,NNW,340,8.0,-999.0,61,-99.99,,,0.00,weatherlink.com 1.10,2013-06-08 02:26:00,
2013-06-07 19:41:00,63.5,50.0,29.73,NNW,329,9.0,-999.0,62,-99.99,,,0.00,weatherlink.com 1.10,2013-06-08 02:41:00,
2013-06-07 19:56:00,63.5,50.0,29.73,NNW,329,7.0,-999.0,62,-99.99,,,0.00,weatherlink.com 1.10,2013-06-08 02:56:00,
2013-06-07 20:18:00,62.8,49.0,29.73,NNW,345,8.0,-999.0,62,-99.99,,,0.00,weatherlink.com 1.10,2013-06-08 03:18:00,
2013-06-07 20:27:00,61.2,50.0,29.73,NNW,345,7.0,-999.0,66,-99.99,,,0.00,weatherlink.com 1.10,2013-06-08 03:27:00,
2013-06-07 20:42:00,59.8,49.0,29.73,NW,321,6.0,-999.0,68,-99.99,,,0.00,weatherlink.com 1.10,2013-06-08 03:42:00,
2013-06-07 20:57:00,58.5,49.0,29.73,NNW,348,3.0,-999.0,71,-99.99,,,0.00,weatherlink.com 1.10,2013-06-08 03:57:00,
2013-06-07 21:18:00,57.6,49.0,29.73,NNW,343,4.0,-999.0,73,-99.99,,,0.00,weatherlink.com 1.10,2013-06-08 04:18:00,
2013-06-07 21:26:00,57.1,49.0,29.73,NW,313,6.0,-999.0,75,-99.99,,,0.00,weatherlink.com 1.10,2013-06-08 04:26:00,
2013-06-07 21:41:00,56.9,49.0,29.73,NW,316,7.0,-999.0,76,-99.99,,,0.00,weatherlink.com 1.10,2013-06-08 04:41:00,
2013-06-07 21:56:00,56.8,50.0,29.73,NNE,13,5.0,-999.0,77,-99.99,,,0.00,weatherlink.com 1.10,2013-06-08 04:56:00,
2013-06-07 22:18:00,56.6,50.0,29.73,NNW,348,5.0,-999.0,78,-99.99,,,0.00,weatherlink.com 1.10,2013-06-08 05:18:00,
2013-06-07 22:26:00,57.7,51.0,29.74,North,5,5.0,-999.0,77,-99.99,,,0.00,weatherlink.com 1.10,2013-06-08 05:26:00,
2013-06-07 22:41:00,58.1,51.0,29.74,NW,315,12.0,-999.0,76,-99.99,,,0.00,weatherlink.com 1.10,2013-06-08 05:41:00,
2013-06-07 22:56:00,57.4,50.0,29.74,NNW,336,6.0,-999.0,77,-99.99,,,0.00,weatherlink.com 1.10,2013-06-08 05:56:00,
2013-06-07 23:14:00,56.6,50.0,29.74,North,9,1.0,-999.0,78,-99.99,,,0.00,weatherlink.com 1.10,2013-06-08 06:14:00,
2013-06-07 23:27:00,56.1,50.0,29.74,North,5,1.0,-999.0,79,-99.99,,,0.00,weatherlink.com 1.10,2013-06-08 06:27:00,
2013-06-07 23:42:00,55.1,50.0,29.73,North,355,4.0,-999.0,82,-99.99,,,0.00,weatherlink.com 1.10,2013-06-08 06:42:00,
2013-06-07 23:57:00,54.7,50.0,29.73,North,355,3.0,-999.0,84,-99.99,,,0.00,weatherlink.com 1.10,2013-06-08 06:57:00,